Meteopurmerend
purmerend
Purmerend - Baaienwijk



My webcam  My webcam


waarschuwing voor Onweer Meer informatie blitzortung!


Regen radar Meer informatie rain snow radar


Bezoek onze andere website:

CandyAppleRed WebdesignWebdesign Purmerend Candy Apple Red

MeteopurmerendBlog

Template documentation
and downloads



Onweer van: 26-07-2021 15:00 tot: 21:00 waarschuwing voor: Onweer niveau: Geel info button
Enkele onweersbuien, lokaal met hagel en veel neerslag in korte tijd.Kans op blikseminslag, hagel en veel neerslag in korte tijd.Verkeer en buitenactiviteiten kunnen hinder ondervinden.Mijd open water en open gebied, schuil niet onder bomen.Volg weerberichten en waarschuwingen.

15 daagse weersverwachting Örebro (SE)

  • Overzicht
  • Per uur
  • 15 dagen
  • Extra
  • Vergelijk
  • Kaarten
  • Dagkaart
  • Meer »
  • Info
  • Statistieken
  • Directe link
    Temp 6h Neerslag Wind  
 04:35     21:38    Daglengte: 17:03 Vandaag
20:00
25°
 
3
 04:37     21:35    Daglengte: 16:58 Morgen
02:00
19°
 
2
08:00
20°
 
3
14:00
26°
2.5 mm
4
20:00
22°
6.0 mm
3
 04:40     21:33    Daglengte: 16:53 Woensdag 28 Jul
02:00
19°
5.9 mm
1
warningclass
08:00
19°
11.4 mm
2
warningclass
14:00
22°
14.1 mm
4
20:00
21°
17.4 mm
3
 04:42     21:31    Daglengte: 16:49 Donderdag 29 Jul
02:00
16°
4.1 mm
2
08:00
18°
 
3
14:00
19°
28.5 mm
4
Locatie info
Region: Örebro län
Latitude: 59.2708°N
Longitude: 15.2176°E
35 masl
Postcode: 702 12
Temp/Neerslag /Baro Onweer/Dauwpunt
    Temp Baro 1h Neerslag Dauwpunt Wind UV Bewolking  
 04:35     21:38    Daglengte: 17:03 Vandaag
17:00
27°
Voelt als: 27.2°
1015.6 hPa
44%
13.3°
4
Windvlaag: 4.4 m/s
68%
18:00
27°
1015.4 hPa   13.4°
4
Windvlaag: 4.5 m/s
70%
19:00
26°
1015.4 hPa   13.4°
4
Windvlaag: 4.2 m/s
75%
20:00
25°
1015.2 hPa   13.9°
3
Windvlaag: 4 m/s
58%
21:00
24°
1015.3 hPa   14.1°
3
Windvlaag: 3.2 m/s
59%
22:00
22°
1015.5 hPa   14.0°
3
Windvlaag: 3.4 m/s
57%
23:00
21°
1015.6 hPa   14.6°
2
Windvlaag: 2.4 m/s
55%
 04:37     21:35    Daglengte: 16:58 Morgen
00:00
20°
1015.6 hPa   15.1°
2
Windvlaag: 1.7 m/s
58%
01:00
19°
1015.3 hPa   15.8°
2
Windvlaag: 1.4 m/s
46%
02:00
19°
1015.0 hPa   16.7°
2
Windvlaag: 0.6 m/s
23%
03:00
18°
1014.7 hPa   17.4°
2
Windvlaag: -0.8 m/s
41%
04:00
17°
1014.3 hPa   17.1°
2
Windvlaag: -1.8 m/s
57%
05:00
17°
1013.8 hPa   16.8°
3
Windvlaag: -2.1 m/s
34%
06:00
18°
1013.3 hPa   17.1°
3
Windvlaag: -2.5 m/s
60%
07:00
19°
1013.1 hPa
13%
17.5°
3
Windvlaag: -2.2 m/s
71%
08:00
20°
1012.9 hPa
13%
17.0°
3
Windvlaag: -2.9 m/s
63%
09:00
21°
1012.7 hPa
14%
17.0°
3
Windvlaag: -2.7 m/s
73%
10:00
23°
1012.2 hPa
14%
17.4°
4
Windvlaag: -3.1 m/s
75%
11:00
24°
1011.8 hPa
14%
18.0°
4
Windvlaag: -1.8 m/s
83%
12:00
26°
1011.4 hPa
15%
17.8°
4
Windvlaag: 1.1 m/s
72%
13:00
27°
1010.7 hPa 0.9 mm
76%
17.6°
5
Windvlaag: 0.4 m/s
82%
14:00
26°
1010.5 hPa 1.6 mm
82%
16.8°
4
Windvlaag: 1.8 m/s
61%
15:00
26°
1010.0 hPa
82%
17.3°
4
Windvlaag: 0.6 m/s
81%
16:00
25°
1010.1 hPa 1.3 mm
82%
16.2°
4
Windvlaag: 3.6 m/s
85%
17:00
24°
1009.8 hPa 1.4 mm
82%
12.6°
4
Windvlaag: 5.1 m/s
82%
18:00
23°
1009.5 hPa 1.3 mm
82%
11.3°
4
Windvlaag: 1 m/s
82%
19:00
22°
1009.1 hPa
81%
10.9°
4
Windvlaag: 0.6 m/s
80%
20:00
22°
1009.1 hPa 2.0 mm
82%
12.1°
3
Windvlaag: 0.7 m/s
83%
21:00
21°
1008.9 hPa 3.0 mm
82%
12.8°
3
Windvlaag: 0.8 m/s
83%
22:00
20°
1008.8 hPa
79%
13.5°
3
Windvlaag: 2.7 m/s
80%
23:00
20°
1008.7 hPa 1.1 mm
82%
13.9°
2
Windvlaag: 2.7 m/s
85%
 04:40     21:33    Daglengte: 16:53 Woensdag 28 Jul
00:00
19°
1008.5 hPa
82%
14.2°
2
Windvlaag: 1.6 m/s
86%
01:00
19°
1008.1 hPa
82%
15.0°
2
Windvlaag: 1.2 m/s
86%
02:00
19°
1007.9 hPa 1.7 mm
82%
16.2°
1
Windvlaag: 1.5 m/s
84% warningclass
03:00
19°
1007.3 hPa
82%
16.8°
2
Windvlaag: 2.2 m/s
78% warningclass
04:00
19°
1007.0 hPa 2.7 mm
82%
17.5°
1
Windvlaag: 2.1 m/s
86% warningclass
05:00
18°
1006.7 hPa 3.0 mm
82%
17.7°
1
Windvlaag: 1.5 m/s
86% warningclass
06:00
18°
1006.5 hPa 2.2 mm
82%
17.6°
1
Windvlaag: 1.8 m/s
85% warningclass
07:00
19°
1006.3 hPa 1.7 mm
82%
17.2°
1
Windvlaag: 3.2 m/s
83%
08:00
19°
1006.3 hPa 1.7 mm
82%
17.1°
2
Windvlaag: 3.8 m/s
84% warningclass
09:00
19°
1006.1 hPa
81%
16.3°
2
Windvlaag: 3.4 m/s
78% warningclass
10:00
20°
1006.0 hPa 1.6 mm
81%
15.9°
2
Windvlaag: 4.1 m/s
76%
11:00
20°
1004.8 hPa 2.7 mm
100%
19.5°
3
Windvlaag: 5.1 m/s
90%
12:00
21°
1004.6 hPa 2.7 mm
100%
18.5°
4
Windvlaag: 5.8 m/s
73%
13:00
21°
1004.3 hPa 2.8 mm
100%
17.8°
4
Windvlaag: 5.9 m/s
64%
14:00
22°
1004.0 hPa 4.2 mm
100%
16.5°
4
Windvlaag: 5.3 m/s
69%
15:00
22°
1003.7 hPa 4.3 mm
60%
15.7°
4
Windvlaag: 4.4 m/s
64%
16:00
22°
1003.5 hPa 4.4 mm
50%
15.5°
4
Windvlaag: 4.4 m/s
73%
17:00
22°
1003.3 hPa
25%
14.7°
4
Windvlaag: 3.8 m/s
62%
18:00
22°
1002.9 hPa 4.2 mm
27%
14.4°
4
Windvlaag: 3.5 m/s
61%
19:00
21°
1002.7 hPa 4.5 mm
25%
13.5°
3
Windvlaag: 3.7 m/s
43%
20:00
21°
1002.5 hPa
21%
13.9°
3
Windvlaag: 2.7 m/s
51%
21:00
19°
1002.4 hPa
21%
15.0°
2
Windvlaag: 2.4 m/s
53%
22:00
18°
1002.3 hPa 4.1 mm
21%
15.2°
2
Windvlaag: 2.7 m/s
52%
23:00
18°
1002.1 hPa
21%
15.7°
2
Windvlaag: 3.2 m/s
44%
 04:42     21:31    Daglengte: 16:49 Donderdag 29 Jul
00:00
17°
1002.0 hPa
21%
15.7°
2
Windvlaag: 3.2 m/s
39%
01:00
17°
1002.1 hPa
22%
15.3°
2
Windvlaag: 3.6 m/s
46%
02:00
16°
1001.9 hPa
21%
14.9°
2
Windvlaag: 3.8 m/s
74%
03:00
16°
1001.4 hPa
22%
14.8°
2
Windvlaag: 3.8 m/s
73%
04:00
16°
1001.0 hPa
21%
14.8°
2
Windvlaag: 3.3 m/s
72%
05:00
16°
1000.6 hPa
21%
14.9°
2
Windvlaag: 2.4 m/s
66%
06:00
16°
1000.6 hPa
21%
14.5°
2
Windvlaag: 2.4 m/s
68%
07:00
17°
1000.3 hPa
25%
14.3°
2
Windvlaag: 3.3 m/s
64%
08:00
18°
999.9 hPa
88%
14.5°
3
Windvlaag: 4 m/s
70%
09:00
18°
997.0 hPa 4.6 mm
100%
14.4°
4
Windvlaag: 8.2 m/s
98% warningclass
10:00
18°
996.8 hPa 4.7 mm
100%
12.3°
4
Windvlaag: 8.2 m/s
98% warningclass
11:00
19°
996.5 hPa 4.8 mm
100%
10.8°
4
Windvlaag: 8.9 m/s
96% warningclass
12:00
18°
996.3 hPa 5.1 mm
100%
10.3°
5
Windvlaag: 8.4 m/s
100% warningclass
13:00
19°
996.1 hPa 4.7 mm
100%
10.3°
5
Windvlaag: 8.2 m/s
72% warningclass
14:00
19°
995.8 hPa 4.6 mm
100%
10.3°
4
Windvlaag: 7 m/s
80%
Temp/Neerslag /Baro Onweer/Dauwpunt
    Temp Baro Neerslag Dauwpunt Wind Bewolking  
 04:35     21:38    Daglengte: 17:03 Vandaag
17:00
27°
Voelt als: 27.2°
1015.6 hPa   13.3°
4
68%
20:00
25°
1015.2 hPa   13.9°
3
58%
23:00
21°
1015.6 hPa   14.6°
2
55%
 04:37     21:35    Daglengte: 16:58 Morgen
02:00
19°
1015.0 hPa   16.7°
2
23%
05:00
17°
1013.8 hPa   16.8°
3
34%
08:00
20°
1012.9 hPa   17.0°
3
63%
11:00
24°
1011.8 hPa   18.0°
4
83%
14:00
26°
1010.5 hPa 2.5 mm 16.8°
4
61%
17:00
24°
1009.8 hPa 2.7 mm 12.6°
4
82%
20:00
22°
1009.1 hPa 3.4 mm 12.1°
3
83%
23:00
20°
1008.7 hPa 4.2 mm 13.9°
2
85%
 04:40     21:33    Daglengte: 16:53 Woensdag 28 Jul
02:00
19°
1007.9 hPa 1.7 mm 16.2°
1
84% warningclass
05:00
18°
1006.7 hPa 5.8 mm 17.7°
1
86% warningclass
08:00
19°
1006.3 hPa 5.6 mm 17.1°
2
84% warningclass
11:00
20°
1004.8 hPa 4.3 mm 19.5°
3
90%
14:00
22°
1004.0 hPa 9.8 mm 16.5°
4
69%
17:00
22°
1003.3 hPa 8.7 mm 14.7°
4
62%
20:00
21°
1002.5 hPa 8.7 mm 13.9°
3
51%
23:00
18°
1002.1 hPa 4.1 mm 15.7°
2
44%
 04:42     21:31    Daglengte: 16:49 Donderdag 29 Jul
02:00
16°
1001.9 hPa   14.9°
2
74%
05:00
16°
1000.6 hPa   14.9°
2
66%
08:00
18°
999.9 hPa   14.5°
3
70%
11:00
19°
996.5 hPa 14.1 mm 10.8°
4
96% warningclass
14:00
19°
995.8 hPa 14.4 mm 10.3°
4
80%
17:00
14°
997.2 hPa 26.8 mm 12.5°
2
1%
20:00
14°
995.2 hPa 29.8 mm 12.5°
4
1%
23:00
12°
994.2 hPa 31.3 mm 11.3°
3
1%
 04:44     21:29    Daglengte: 16:45 Vrijdag 30 Jul
02:00
10°
993.1 hPa 31.6 mm 10.0°
2
1%
05:00
11°
991.5 hPa 34.1 mm 10.8°
2
1%
08:00
12°
990.8 hPa 40.6 mm 11.5°
2
1%
11:00
15°
991.6 hPa 42.7 mm 14.1°
2
1%
14:00
19°
991.8 hPa 44.1 mm 15.2°
3
1%
17:00
20°
992.6 hPa 46.2 mm 16.7°
3
1%
20:00
17°
993.7 hPa 47.8 mm 15.5°
3
1%
23:00
14°
995.4 hPa 47.8 mm 13.0°
2
0%
 04:46     21:26    Daglengte: 16:40 Zaterdag 31 Jul
02:00
12°
996.8 hPa 47.9 mm 11.2°
2
0%
05:00
10°
Voelt als: 8.9°
997.9 hPa 47.9 mm 8.6°
2
0%
08:00
14°
998.9 hPa 47.9 mm 11.0°
2
0%
11:00
20°
999.1 hPa 47.9 mm 12.5°
3
1%
14:00
22°
998.9 hPa 47.9 mm 11.5°
3
1%
17:00
22°
998.7 hPa 47.9 mm 10.5°
3
1%
20:00
18°
998.7 hPa 47.9 mm 12.2°
2
1%
23:00
13°
998.8 hPa 47.9 mm 10.9°
1
0%
 04:48     21:24    Daglengte: 16:36 Zondag 01 Aug
02:00
12°
998.4 hPa 47.9 mm 10.4°
1
0%
05:00
12°
997.2 hPa 48.6 mm 11.4°
1
1%
08:00
13°
996.9 hPa 50.9 mm 12.5°
0
1%
11:00
14°
997.3 hPa 53.2 mm 13.4°
1
1%
14:00
18°
997.3 hPa 55.8 mm 13.9°
3
1%
17:00
19°
997.3 hPa 56.0 mm 9.0°
4
1%
20:00
16°
997.4 hPa 56.1 mm 10.5°
3
1%
23:00
12°
998.0 hPa 56.1 mm 10.2°
3
0%
 04:51     21:22    Daglengte: 16:31 Maandag 02 Aug
02:00
11°
997.3 hPa 56.1 mm 8.9°
2
0%
05:00
12°
996.6 hPa 56.1 mm 8.7°
2
1%
08:00
14°
995.9 hPa 56.1 mm 10.3°
3
1%
11:00
17°
995.7 hPa 56.4 mm 12.2°
4
1%
14:00
19°
996.5 hPa 113.3 mm 9.1°
5
1%
20:00
14°
998.8 hPa 113.8 mm 7.8°
3
0%
 04:53     21:19    Daglengte: 16:26 Dinsdag 03 Aug
02:00
Voelt als: 8.2°
1000.7 hPa 113.8 mm 6.1°
1
0%
08:00
12°
1000.5 hPa 116.0 mm 10.2°
3
1%
14:00
17°
1002.0 hPa 117.8 mm 8.3°
6
0%
20:00
16°
1003.0 hPa 118.8 mm 7.8°
1
1%
 04:55     21:17    Daglengte: 16:22 Woensdag 04 Aug
02:00
11°
1005.0 hPa 119.4 mm 9.5°
4
1%
08:00
14°
1005.9 hPa 119.7 mm 11.5°
4
0%
14:00
17°
1004.4 hPa 122.0 mm 14.4°
4
1%
20:00
15°
1001.4 hPa 139.8 mm 14.1°
3
1%
 04:57     21:14    Daglengte: 16:17 Donderdag 05 Aug
02:00
14°
999.3 hPa 144.0 mm 12.9°
3
1%
08:00
15°
997.1 hPa 144.1 mm 12.7°
3
0%
14:00
20°
1007.3 hPa 1.7 mm 12.0°
1
66%
20:00
17°
1006.9 hPa 1.8 mm 12.2°
0
69%
 05:00     21:12    Daglengte: 16:12 Vrijdag 06 Aug
02:00
12°
1007.6 hPa 0.5 mm 10.8°
0
66%
08:00
15°
1007.3 hPa 0.3 mm 11.7°
0
72%
14:00
21°
1006.2 hPa 1.1 mm 11.9°
1
76%
20:00
18°
1005.3 hPa 1.5 mm 12.3°
1
75%
 05:02     21:09    Daglengte: 16:07 Zaterdag 07 Aug
02:00
13°
1005.5 hPa 0.7 mm 11.3°
1
69%
08:00
15°
1004.8 hPa 1.4 mm 12.0°
1
78%
14:00
21°
1004.4 hPa 1.5 mm 12.3°
0
74%
20:00
18°
1004.2 hPa 1.2 mm 12.5°
1
70%
 05:04     21:06    Daglengte: 16:02 Zondag 08 Aug
02:00
13°
1004.8 hPa 1.5 mm 11.3°
1
61%
08:00
15°
1004.6 hPa 1.2 mm 12.3°
1
62%
14:00
21°
1004.3 hPa 1.4 mm 12.3°
1
67%
20:00
18°
1004.6 hPa 1.4 mm 12.6°
1
70%
 05:07     21:04    Daglengte: 15:57 Maandag 09 Aug
02:00
13°
1005.7 hPa 0.4 mm 11.5°
0
64%
08:00
15°
1006.0 hPa 0.5 mm 12.2°
1
62%
14:00
20°
1006.3 hPa 1.0 mm 12.4°
1
64%
20:00
17°
1006.5 hPa   12.7°
1
68%
 05:09     21:01    Daglengte: 15:52 Dinsdag 10 Aug
02:00
13°
1007.5 hPa 0.3 mm 11.5°
1
62%
08:00
15°
1007.8 hPa 0.8 mm 11.9°
1
67%
14:00
20°
1008.2 hPa 0.7 mm 11.7°
1
71%
  CAPE Lifted Index Hail Supercell Tornado SRH 3km CL BTM PRES CL TOP PRES Swiss DWD icon SMHI TS
 04:35     21:38    Daglengte: 17:03 Vandaag
17:00 39 J/kg -0.2 K 0 % 0 % 0 % 0 m²/s² 0 0 1.45 3
18:00 0 J/kg 0.5 K 0 % 0 % 0 % 0 m²/s² 0 0 2.15 3
19:00 0 J/kg 0.4 K 0 % 0 % 0 % 0 m²/s² 0 0 1.6 3
20:00 2 J/kg 0.1 K 0 % 0 % 0 % 0 m²/s² 0 0 1.06 3
21:00 0 J/kg 0.3 K 0 % 0 % 0 % 0 m²/s² 0 0 1.41 3
22:00 0 J/kg 0.4 K 0 % 0 % 0 % 0 m²/s² 0 0 1.3 3
23:00 0 J/kg 0.9 K 0 % 0 % 0 % 0 m²/s² 0 0 2.61 3
 04:37     21:35    Daglengte: 16:58 Morgen
00:00 7 J/kg 1.4 K 0 % 0 % 0 % 0 m²/s² 0 0 4.22 3
01:00 0 J/kg 1.9 K 0 % 0 % 0 % 0 m²/s² 0 0 4.96 3
02:00 1 J/kg 2.0 K 0 % 0 % 0 % 0 m²/s² 0 0 5.42 2
03:00 0 J/kg 1.2 K 0 % 0 % 0 % 0 m²/s² 0 0 3.87 2
04:00 0 J/kg 0.1 K 0 % 0 % 0 % 0 m²/s² 0 0 1.69 3
05:00 0 J/kg -0.8 K 0 % 0 % 0 % 0 m²/s² 0 0 -0.5 2
06:00 0 J/kg 0.2 K 0 % 0 % 0 % 0 m²/s² 0 0 0.41 3
07:00 1 J/kg -0.3 K 0 % 0 % 0 % 0 m²/s² 0 0 -0.09 3
08:00 58 J/kg -1.2 K 0 % 0 % 0 % 0 m²/s² 0 0 -1.2 3
09:00 68 J/kg -0.9 K 0 % 0 % 0 % 0 m²/s² 0 0 -0.9 3
10:00 270 J/kg -1.8 K 0 % 0 % 0 % 0 m²/s² 0 0 -1.8 3
11:00 1060 J/kg -3.4 K 0 % 0 % 0 % 0 m²/s² 0 0 -3.28 3
12:00 1487 J/kg -4.4 K 0 % 0 % 0 % 0 m²/s² 0 0 -4.04 3
13:00 655 J/kg -2.0 K 0 % 0 % 0 % 0 m²/s² 0 0 -1.64 3
14:00 486 J/kg -1.6 K 0 % 0 % 0 % 0 m²/s² 0 0 -1.03 80
15:00 525 J/kg -1.9 K 0 % 0 % 0 % 0 m²/s² 0 0 -1.24 3
16:00 581 J/kg -2.2 K 0 % 0 % 0 % 0 m²/s² 0 0 -1.63 80
17:00 403 J/kg -1.8 K 0 % 0 % 0 % 0 m²/s² 0 0 -0.99 61
18:00 288 J/kg -1.6 K 0 % 0 % 0 % 0 m²/s² 0 0 -0.64 61
19:00 229 J/kg -1.1 K 0 % 0 % 0 % 0 m²/s² 0 0 0.13 61
20:00 410 J/kg -1.3 K 0 % 0 % 0 % 0 m²/s² 0 0 -0.67 61
21:00 448 J/kg -1.6 K 0 % 0 % 0 % 0 m²/s² 0 0 -0.73 61
22:00 276 J/kg -1.2 K 0 % 0 % 0 % 0 m²/s² 0 0 -0.24 3
23:00 333 J/kg -1.6 K 0 % 0 % 0 % 0 m²/s² 0 0 -0.58 61
 04:40     21:33    Daglengte: 16:53 Woensdag 28 Jul
00:00 345 J/kg -2.0 K 0 % 0 % 0 % 0 m²/s² 0 0 -1.1 61
01:00 308 J/kg -1.8 K 0 % 0 % 0 % 0 m²/s² 0 0 -0.84 81
02:00 263 J/kg -2.0 K 0 % 0 % 0 % 0 m²/s² 0 0 -1.13 95
03:00 2 J/kg -1.5 K 0 % 0 % 0 % 0 m²/s² 0 0 -0.45 95
04:00 6 J/kg -1.7 K 0 % 0 % 0 % 0 m²/s² 0 0 -1.07 95
05:00 0 J/kg -1.3 K 0 % 0 % 0 % 0 m²/s² 0 0 -1.09 95
06:00 0 J/kg -0.9 K 0 % 0 % 0 % 0 m²/s² 0 0 -0.51 95
07:00 0 J/kg -1.0 K 0 % 0 % 0 % 0 m²/s² 0 0 -0.88 80
08:00 20 J/kg -1.0 K 0 % 0 % 0 % 0 m²/s² 0 0 -0.79 95
09:00 69 J/kg -1.3 K 0 % 0 % 0 % 0 m²/s² 0 0 -1.03 95
10:00 42 J/kg -1.0 K 0 % 0 % 0 % 0 m²/s² 0 0 -1 80
11:00 101 J/kg -0.7 K 0 % 0 % 0 % 0 m²/s² 0 0 -0.61 80
12:00 239 J/kg -1.1 K 0 % 0 % 0 % 0 m²/s² 0 0 -0.98 80
13:00 572 J/kg -2.1 K 0 % 0 % 0 % 0 m²/s² 0 0 -1.47 80
14:00 649 J/kg -2.3 K 0 % 0 % 0 % 0 m²/s² 0 0 -0.92 3
15:00 473 J/kg -1.6 K 0 % 0 % 0 % 0 m²/s² 0 0 0.65 3
16:00 510 J/kg -1.8 K 0 % 0 % 0 % 0 m²/s² 0 0 0.3 3
17:00 264 J/kg -1.1 K 0 % 0 % 0 % 0 m²/s² 0 0 1.63 3
18:00 151 J/kg -0.9 K 0 % 0 % 0 % 0 m²/s² 0 0 2.52 2
19:00 0 J/kg 0.1 K 0 % 0 % 0 % 0 m²/s² 0 0 3.79 2
20:00 2 J/kg -0.1 K 0 % 0 % 0 % 0 m²/s² 0 0 3.32 3
21:00 0 J/kg 0.5 K 0 % 0 % 0 % 0 m²/s² 0 0 2.51 3
22:00 0 J/kg 0.2 K 0 % 0 % 0 % 0 m²/s² 0 0 1.16 3
23:00 45 J/kg -0.4 K 0 % 0 % 0 % 0 m²/s² 0 0 0.71 3
 04:42     21:31    Daglengte: 16:49 Donderdag 29 Jul
00:00 2 J/kg -0.1 K 0 % 0 % 0 % 0 m²/s² 0 0 0.89 3
01:00 0 J/kg -0.1 K 0 % 0 % 0 % 0 m²/s² 0 0 0.59 3
02:00 43 J/kg -0.1 K 0 % 0 % 0 % 0 m²/s² 0 0 0.71 3
03:00 53 J/kg 0.0 K 0 % 0 % 0 % 0 m²/s² 0 0 0.57 2
04:00 0 J/kg 0.9 K 0 % 0 % 0 % 0 m²/s² 0 0 1.83 3
05:00 0 J/kg 1.0 K 0 % 0 % 0 % 0 m²/s² 0 0 1.9 3
06:00 0 J/kg 0.3 K 0 % 0 % 0 % 0 m²/s² 0 0 1.23 3
07:00 115 J/kg -0.6 K 0 % 0 % 0 % 0 m²/s² 0 0 0.96 3
08:00 672 J/kg -3.2 K 0 % 0 % 0 % 0 m²/s² 0 0 -2.06 3
09:00 698 J/kg -3.4 K 0 % 0 % 0 % 0 m²/s² 0 0 -0.64 95
10:00 493 J/kg -2.6 K 0 % 0 % 0 % 0 m²/s² 0 0 -0.92 95
11:00 320 J/kg -1.5 K 0 % 0 % 0 % 0 m²/s² 0 0 0.87 95
12:00 402 J/kg -1.5 K 0 % 0 % 0 % 0 m²/s² 0 0 -0.33 95
13:00 467 J/kg -2.0 K 0 % 0 % 0 % 0 m²/s² 0 0 0.82 95
14:00 573 J/kg -2.9 K 0 % 0 % 0 % 0 m²/s² 0 0 -0.98 80
Temp Baro Wind Neerslag
  EWN Forecast EWN WRFDA DWD ICON FMI HIRLAM MET Norway GFS
 04:35     21:38    Daglengte: 17:03 Vandaag
17:00 27.3° 1015.6 hPa 4.4 m/s 0.0 mm 26.8° 1014.7 hPa 5.9 m/s 0.3 mm 27.4° 1015.7 hPa 3.1 m/s -1.7 mm 27.7° 1015.7 hPa 4.2 m/s 0.0 mm 26.9° 1015.4 hPa 4.6 m/s
20:00 24.8° 1015.2 hPa 3.5 m/s 0.0 mm 23.5° 1014.8 hPa 3.9 m/s 0.9 mm 25.5° 1014.8 hPa 3.4 m/s 0.0 mm 24.8° 1015.5 hPa 2.9 m/s 0.0 mm 23.3° 1015.0 hPa 3.6 m/s
23:00 21.1° 1015.6 hPa 2.5 m/s 0.0 mm 17.5° 1014.5 hPa 3.1 m/s 0.9 mm 21.1° 1015.5 hPa 2.3 m/s 0.0 mm 21.2° 1016.1 hPa 2.0 m/s 0.0 mm 17.8° 1015.8 hPa 2.2 m/s
 04:37     21:35    Daglengte: 16:58 Morgen
02:00 18.6° 1015.0 hPa 1.8 m/s 0.0 mm 15.1° 1013.9 hPa 2.5 m/s 0.9 mm 18.8° 1014.8 hPa 1.6 m/s 0.0 mm 17.6° 1015.6 hPa 1.3 m/s 0.0 mm 15.4° 1015.2 hPa 1.6 m/s
05:00 17.0° 1013.8 hPa 2.5 m/s 0.0 mm 15.8° 1012.5 hPa 2.8 m/s 0.9 mm 16.8° 1013.7 hPa 2.3 m/s 0.0 mm 15.2° 1014.7 hPa 1.7 m/s 0.0 mm 14.3° 1014.2 hPa 2.4 m/s
08:00 20.0° 1012.9 hPa 3.2 m/s 0.0 mm 18.3° 1012.7 hPa 1.6 m/s 1.5 mm 20.2° 1012.8 hPa 3.4 m/s 0.0 mm 19.2° 1013.6 hPa 2.2 m/s 0.0 mm 18.6° 1013.4 hPa 2.9 m/s
11:00 23.9° 1011.8 hPa 3.8 m/s 0.0 mm 23.0° 1010.2 hPa 4.8 m/s 9.6 mm 24.8° 1011.6 hPa 3.7 m/s 0.0 mm 23.6° 1012.8 hPa 2.4 m/s 0.0 mm 19.0° 1012.1 hPa 1.8 m/s
14:00 26.3° 1010.5 hPa 3.9 m/s 2.5 mm 27.3° 1008.6 hPa 6.0 m/s 10.5 mm 26.8° 1010.5 hPa 4.1 m/s 0.4 mm 26.7° 1011.6 hPa 3.5 m/s 0.0 mm 24.4° 1010.3 hPa 1.8 m/s
17:00 23.6° 1009.8 hPa 4.1 m/s 2.7 mm 27.3° 1008.0 hPa 6.4 m/s 13.7 mm 22.6° 1009.9 hPa 2.0 m/s 1.4 mm 27.4° 1010.0 hPa 3.9 m/s 0.0 mm 20.0° 1010.4 hPa 3.1 m/s
20:00 21.6° 1009.1 hPa 3.4 m/s 3.4 mm 24.3° 1007.3 hPa 2.7 m/s 14.7 mm 21.0° 1009.2 hPa 1.1 m/s 0.6 mm 25.5° 1009.2 hPa 3.5 m/s 0.0 mm 17.6° 1009.5 hPa 1.5 m/s
23:00 19.6° 1008.7 hPa 2.2 m/s 4.2 mm 20.6° 1007.2 hPa 1.9 m/s 14.7 mm 19.3° 1008.2 hPa 0.7 m/s 0.4 mm 21.8° 1009.4 hPa 2.0 m/s 0.0 mm 17.5° 1009.7 hPa 1.1 m/s
 04:40     21:33    Daglengte: 16:53 Woensdag 28 Jul
02:00 19.1° 1007.9 hPa 1.4 m/s 1.7 mm 19.4° 1006.0 hPa 1.5 m/s 14.8 mm 19.1° 1007.4 hPa 0.3 m/s 6.2 mm 19.0° 1008.5 hPa 1.2 m/s 0.0 mm 17.2° 1008.4 hPa 0.7 m/s
05:00 18.3° 1006.7 hPa 1.2 m/s 5.8 mm 18.5° 1004.1 hPa 2.1 m/s 15.2 mm 18.6° 1006.2 hPa 0.9 m/s 11.7 mm 16.4° 1007.5 hPa 0.9 m/s 0.0 mm 17.1° 1006.9 hPa 0.3 m/s
08:00 19.0° 1006.3 hPa 1.6 m/s 5.6 mm 18.4° 1002.9 hPa 1.6 m/s 15.8 mm 18.5° 1005.3 hPa 1.6 m/s 4.4 mm 19.4° 1006.9 hPa 0.8 m/s 0.0 mm 18.1° 1006.7 hPa 1.1 m/s
11:00 19.8° 1004.8 hPa 2.9 m/s 4.3 mm 18.4° 1002.1 hPa 3.7 m/s 23.3 mm 19.8° 1004.8 hPa 3.0 m/s 1.9 mm 21.4° 1005.8 hPa 2.1 m/s
14:00 21.7° 1004.0 hPa 3.9 m/s 9.8 mm 23.0° 1001.6 hPa 6.1 m/s 36.1 mm 21.6° 1003.9 hPa 3.9 m/s 0.5 mm 24.8° 1004.8 hPa 3.8 m/s
17:00 22.2° 1003.3 hPa 3.8 m/s 8.7 mm 23.4° 1001.5 hPa 6.2 m/s 36.2 mm 22.2° 1003.0 hPa 3.8 m/s 0.0 mm 24.7° 1004.1 hPa 3.9 m/s
20:00 20.6° 1002.5 hPa 2.9 m/s 8.7 mm 21.0° 1001.1 hPa 4.3 m/s 36.2 mm 20.7° 1002.0 hPa 2.9 m/s 0.0 mm 19.9° 1003.6 hPa 2.4 m/s
23:00 17.7° 1002.1 hPa 2.1 m/s 4.1 mm 16.3° 1001.3 hPa 3.0 m/s 36.2 mm 17.8° 1001.5 hPa 2.2 m/s 0.0 mm 16.4° 1003.5 hPa 2.1 m/s
 04:42     21:31    Daglengte: 16:49 Donderdag 29 Jul
02:00 16.1° 1001.9 hPa 2.5 m/s 0.0 mm 14.9° 1001.8 hPa 2.8 m/s 36.2 mm 16.0° 999.9 hPa 2.5 m/s 0.0 mm 15.5° 1002.7 hPa 2.3 m/s
05:00 15.5° 1000.6 hPa 1.9 m/s 0.0 mm 14.3° 1000.6 hPa 3.0 m/s 36.2 mm 15.5° 998.3 hPa 2.0 m/s 0.0 mm 14.0° 1002.1 hPa 2.0 m/s
08:00 17.8° 999.9 hPa 2.8 m/s 0.0 mm 19.1° 1000.3 hPa 4.8 m/s 36.2 mm 17.6° 996.5 hPa 2.9 m/s 0.1 mm 17.9° 1000.9 hPa 3.7 m/s
11:00 18.6° 996.5 hPa 4.2 m/s 14.1 mm 21.5° 999.9 hPa 5.3 m/s 36.6 mm 17.9° 995.6 hPa 3.9 m/s 2.9 mm 19.3° 1000.0 hPa 4.1 m/s
14:00 18.7° 995.8 hPa 4.4 m/s 14.4 mm 22.4° 998.9 hPa 5.7 m/s 37.0 mm 17.7° 995.0 hPa 4.1 m/s 3.1 mm 19.9° 998.4 hPa 5.1 m/s
17:00 13.8° 997.2 hPa 2.3 m/s 26.8 mm 13.8° 997.2 hPa 2.3 m/s 26.8 mm
20:00 13.9° 995.2 hPa 3.7 m/s 29.8 mm 13.9° 995.2 hPa 3.7 m/s 29.8 mm
23:00 11.8° 994.2 hPa 2.5 m/s 31.3 mm 11.8° 994.2 hPa 2.5 m/s 31.3 mm
 04:44     21:29    Daglengte: 16:45 Vrijdag 30 Jul
02:00 10.3° 993.1 hPa 2.2 m/s 31.6 mm 10.3° 993.1 hPa 2.2 m/s 31.6 mm
05:00 11.2° 991.5 hPa 2.4 m/s 34.1 mm 11.2° 991.5 hPa 2.4 m/s 34.1 mm
08:00 11.8° 990.8 hPa 1.8 m/s 40.6 mm 11.8° 990.8 hPa 1.8 m/s 40.6 mm
11:00 14.5° 991.6 hPa 1.9 m/s 42.7 mm 14.5° 991.6 hPa 1.9 m/s 42.7 mm
14:00 19.0° 991.8 hPa 3.3 m/s 44.1 mm 19.0° 991.8 hPa 3.3 m/s 44.1 mm
17:00 19.6° 992.6 hPa 2.9 m/s 46.2 mm 19.6° 992.6 hPa 2.9 m/s 46.2 mm
20:00 17.0° 993.7 hPa 2.6 m/s 47.8 mm 17.0° 993.7 hPa 2.6 m/s 47.8 mm
23:00 13.6° 995.4 hPa 1.6 m/s 47.8 mm 13.6° 995.4 hPa 1.6 m/s 47.8 mm
 04:46     21:26    Daglengte: 16:40 Zaterdag 31 Jul
02:00 11.8° 996.8 hPa 1.6 m/s 47.9 mm 11.8° 996.8 hPa 1.6 m/s 47.9 mm
05:00 9.5° 997.9 hPa 1.7 m/s 47.9 mm 9.5° 997.9 hPa 1.7 m/s 47.9 mm
08:00 13.8° 998.9 hPa 1.7 m/s 47.9 mm 13.8° 998.9 hPa 1.7 m/s 47.9 mm
11:00 19.9° 999.1 hPa 3.3 m/s 47.9 mm 19.9° 999.1 hPa 3.3 m/s 47.9 mm
14:00 22.0° 998.9 hPa 2.7 m/s 47.9 mm 22.0° 998.9 hPa 2.7 m/s 47.9 mm
17:00 21.6° 998.7 hPa 3.1 m/s 47.9 mm 21.6° 998.7 hPa 3.1 m/s 47.9 mm
20:00 18.3° 998.7 hPa 2.1 m/s 47.9 mm 18.3° 998.7 hPa 2.1 m/s 47.9 mm
23:00 13.0° 998.8 hPa 1.2 m/s 47.9 mm 13.0° 998.8 hPa 1.2 m/s 47.9 mm
 04:48     21:24    Daglengte: 16:36 Zondag 01 Aug
02:00 11.7° 998.4 hPa 1.0 m/s 47.9 mm 11.7° 998.4 hPa 1.0 m/s 47.9 mm
05:00 12.2° 997.2 hPa 0.7 m/s 48.6 mm 12.2° 997.2 hPa 0.7 m/s 48.6 mm
08:00 12.9° 996.9 hPa 0.5 m/s 50.9 mm 12.9° 996.9 hPa 0.5 m/s 50.9 mm
11:00 13.7° 997.3 hPa 0.6 m/s 53.2 mm 13.7° 997.3 hPa 0.6 m/s 53.2 mm
14:00 17.7° 997.3 hPa 3.2 m/s 55.8 mm 17.7° 997.3 hPa 3.2 m/s 55.8 mm
17:00 19.1° 997.3 hPa 4.0 m/s 56.0 mm 19.1° 997.3 hPa 4.0 m/s 56.0 mm
20:00 16.3° 997.4 hPa 2.8 m/s 56.1 mm 16.3° 997.4 hPa 2.8 m/s 56.1 mm
23:00 12.0° 998.0 hPa 3.2 m/s 56.1 mm 12.0° 998.0 hPa 3.2 m/s 56.1 mm
 04:51     21:22    Daglengte: 16:31 Maandag 02 Aug
02:00 10.5° 997.3 hPa 2.5 m/s 56.1 mm 10.5° 997.3 hPa 2.5 m/s 56.1 mm
05:00 12.0° 996.6 hPa 1.9 m/s 56.1 mm 12.0° 996.6 hPa 1.9 m/s 56.1 mm
08:00 14.2° 995.9 hPa 3.0 m/s 56.1 mm 14.2° 995.9 hPa 3.0 m/s 56.1 mm
11:00 17.0° 995.7 hPa 3.5 m/s 56.4 mm 17.0° 995.7 hPa 3.5 m/s 56.4 mm
14:00 18.9° 996.5 hPa 4.5 m/s 56.9 mm 18.9° 996.5 hPa 4.5 m/s 56.9 mm
20:00 14.2° 998.8 hPa 3.0 m/s 56.9 mm 14.2° 998.8 hPa 3.0 m/s 56.9 mm
 04:53     21:19    Daglengte: 16:26 Dinsdag 03 Aug
02:00 8.5° 1000.7 hPa 1.3 m/s 56.9 mm 8.5° 1000.7 hPa 1.3 m/s 56.9 mm
08:00 11.8° 1000.5 hPa 2.9 m/s 58.4 mm 11.8° 1000.5 hPa 2.9 m/s 58.4 mm
14:00 17.1° 1002.0 hPa 5.9 m/s 59.2 mm 17.1° 1002.0 hPa 5.9 m/s 59.2 mm
20:00 15.7° 1003.0 hPa 1.4 m/s 59.4 mm 15.7° 1003.0 hPa 1.4 m/s 59.4 mm
 04:55     21:17    Daglengte: 16:22 Woensdag 04 Aug
02:00 10.6° 1005.0 hPa 3.5 m/s 59.8 mm 10.6° 1005.0 hPa 3.5 m/s 59.8 mm
08:00 14.4° 1005.9 hPa 3.7 m/s 59.8 mm 14.4° 1005.9 hPa 3.7 m/s 59.8 mm
14:00 17.3° 1004.4 hPa 3.8 m/s 61.8 mm 17.3° 1004.4 hPa 3.8 m/s 61.8 mm
20:00 14.7° 1001.4 hPa 3.1 m/s 71.9 mm 14.7° 1001.4 hPa 3.1 m/s 71.9 mm
 04:57     21:14    Daglengte: 16:17 Donderdag 05 Aug
02:00 13.5° 999.3 hPa 3.0 m/s 72.0 mm 13.5° 999.3 hPa 3.0 m/s 72.0 mm
08:00 14.5° 997.1 hPa 3.4 m/s 72.1 mm 14.5° 997.1 hPa 3.4 m/s 72.1 mm
14:00 20.1° 1007.3 hPa 1.1 m/s 1.7 mm
20:00 17.0° 1006.9 hPa 0.3 m/s 1.8 mm
 05:00     21:12    Daglengte: 16:12 Vrijdag 06 Aug
02:00 12.4° 1007.6 hPa 0.2 m/s 0.5 mm
08:00 14.8° 1007.3 hPa 0.4 m/s 0.3 mm
14:00 20.6° 1006.2 hPa 1.0 m/s 1.1 mm
20:00 17.8° 1005.3 hPa 1.0 m/s 1.5 mm
 05:02     21:09    Daglengte: 16:07 Zaterdag 07 Aug
02:00 13.0° 1005.5 hPa 0.6 m/s 0.7 mm
08:00 15.1° 1004.8 hPa 1.0 m/s 1.4 mm
14:00 20.7° 1004.4 hPa 0.3 m/s 1.5 mm
20:00 17.7° 1004.2 hPa 0.6 m/s 1.2 mm
 05:04     21:06    Daglengte: 16:02 Zondag 08 Aug
02:00 13.1° 1004.8 hPa 0.6 m/s 1.5 mm
08:00 15.3° 1004.6 hPa 0.7 m/s 1.2 mm
14:00 21.1° 1004.3 hPa 0.7 m/s 1.4 mm
20:00 17.9° 1004.6 hPa 0.6 m/s 1.4 mm
 05:07     21:04    Daglengte: 15:57 Maandag 09 Aug
02:00 13.2° 1005.7 hPa 0.3 m/s 0.4 mm
08:00 15.1° 1006.0 hPa 0.6 m/s 0.5 mm
14:00 20.0° 1006.3 hPa 1.1 m/s 1.0 mm
20:00 16.9° 1006.5 hPa 0.9 m/s 0.0 mm
 05:09     21:01    Daglengte: 15:52 Dinsdag 10 Aug
02:00 13.0° 1007.5 hPa 0.8 m/s 0.3 mm